Theta_e
295 295 294 293 293 293 293 293 291 288 289 291 290 292 291 292 291 291 291 289 291 292 294 296 295 296 296 297 298 298 299 299 299 300 301 301 302 302
293 293 292 292 291 292 292 292 292 290 288 290 289 290 291 290 291 291 289 289 289 291 294 294 294 294 294 294 295 295 296 296 296 297 298 299 299 300
291 291 290 290 290 290 291 290 290 289 287 289 290 290 289 289 290 290 289 289 288 289 291 293 293 292 292 292 292 292 293 293 293 294 294 295 296 296
290 289 288 288 288 289 289 288 289 289 287 285 288 288 288 289 289 288 287 288 287 287 289 290 291 291 291 290 290 290 290 290 290 290 291 292 292 293
289 288 288 288 288 288 288 288 288 287 288 286 286 288 288 289 287 287 287 287 287 286 287 286 288 289 289 289 289 289 288 288 288 288 288 289 289 290
289 288 288 288 288 287 287 287 287 287 287 286 286 286 287 287 287 283 283 286 285 286 286 284 285 286 288 287 287 286 287 287 287 286 286 286 287 287
287 287 287 286 285 287 287 286 286 286 286 285 285 285 285 284 282 283 282 282 286 286 285 285 284 284 284 287 286 286 285 285 285 285 285 285 285 285
286 286 286 284 285 286 286 285 286 285 285 284 284 283 283 283 283 281 281 280 279 287 284 284 284 283 283 286 286 286 285 284 283 283 283 284 283 283
285 285 284 284 284 285 285 286 286 286 286 285 283 284 283 285 283 281 281 280 279 283 283 282 284 283 282 282 284 284 285 283 282 281 281 281 282 282
285 285 284 284 284 284 284 284 284 285 285 286 286 286 285 286 284 282 281 280 281 283 283 279 284 282 282 281 280 281 282 283 282 280 279 279 279 280
283 283 283 283 283 284 284 283 283 284 286 286 287 288 288 285 284 282 279 278 280 283 282 280 282 281 282 280 279 277 278 280 281 281 280 278 276 276
282 281 281 282 282 283 284 283 281 282 284 285 285 286 287 283 282 281 281 278 278 280 281 279 281 280 279 279 277 276 275 275 276 279 280 279 277 275
281 280 281 281 282 283 285 285 283 284 284 284 285 286 285 283 281 281 280 280 280 280 281 280 280 280 279 279 277 275 274 273 273 273 274 277 278 277
281 281 281 281 283 284 284 284 284 284 285 283 282 283 283 283 283 282 280 279 280 279 279 277 278 279 278 277 276 274 273 273 273 272 272 273 273 275
281 281 281 283 282 282 282 282 281 281 281 280 281 282 283 283 283 281 279 278 277 277 276 276 276 278 277 276 276 275 273 272 272 271 271 271 271 272
280 281 280 280 280 281 278 278 279 280 279 279 280 281 282 281 280 281 279 278 276 277 276 275 274 275 276 276 276 275 273 271 271 270 270 270 271 271
279 278 277 277 276 276 276 275 276 277 278 278 278 278 279 280 280 281 279 279 276 277 276 274 273 274 275 274 273 273 272 270 270 270 268 269 270 270
277 276 275 274 273 273 273 272 273 274 275 276 276 276 277 277 278 280 279 278 277 277 277 275 273 272 272 272 273 272 271 270 269 268 268 267 269 270
275 274 274 272 271 270 270 270 270 271 271 272 274 274 275 275 276 277 279 278 277 277 277 275 273 272 271 270 271 272 270 269 268 267 268 268 268 269
272 272 271 270 269 268 268 268 268 268 269 270 270 271 271 272 273 275 277 277 277 277 275 274 272 272 271 272 273 270 272 269 268 268 267 267 268 269
269 268 268 267 266 266 266 266 266 266 267 266 268 269 270 271 271 273 275 275 276 276 274 273 273 274 273 270 268 268 269 271 269 268 268 266 266 266
268 267 266 265 265 264 265 265 265 265 266 266 266 267 268 269 269 271 272 273 274 274 274 275 269 269 268 268 269 269 267 268 269 270 270 269 267 265
266 266 265 264 264 264 263 264 263 265 265 264 265 265 266 265 267 269 270 272 273 273 273 270 268 267 268 268 268 268 266 264 265 265 266 270 272 272
Wind_Speed
6 6 4 4 4 3 2 1 0 2 2 3 3 7 8 8 10 12 12 17 21 21 21 20 24 25 26 26 29 30 32 32 33 34 35 36 37 35
5 6 5 4 4 3 3 3 1 0 3 0 4 7 8 8 8 11 11 12 19 20 21 20 22 23 25 26 27 29 30 31 32 33 34 34 34 35
6 7 6 5 4 4 4 3 3 0 3 2 4 6 8 9 9 10 10 10 9 18 18 21 20 22 23 25 27 28 29 29 30 30 31 31 32 33
9 7 7 4 5 5 4 4 2 2 2 6 6 6 7 8 9 10 9 7 7 11 15 18 20 19 22 24 26 27 27 27 29 29 30 31 32 32
8 7 7 6 5 4 4 3 2 0 2 3 5 5 6 6 7 8 8 8 5 8 11 12 15 18 19 21 23 24 25 26 27 27 28 29 30 30
7 6 6 6 6 6 4 4 3 1 2 3 4 5 4 6 5 7 8 6 5 4 4 7 9 13 17 18 20 22 24 24 25 25 26 27 28 30
7 6 6 5 4 4 4 4 3 1 2 3 4 5 5 7 7 6 7 7 5 2 4 3 5 6 8 12 14 20 21 21 22 23 24 25 25 26
8 7 6 6 7 8 8 6 4 3 3 4 4 5 6 6 5 5 6 6 4 3 3 5 3 3 6 7 17 17 18 19 19 20 20 22 22 23
8 7 6 4 5 6 7 7 6 7 8 7 7 6 6 2 4 8 6 6 7 6 5 7 2 3 2 5 13 15 16 16 17 17 17 17 20 20
7 6 6 6 5 5 5 4 5 5 5 5 5 6 5 3 4 6 8 8 8 7 5 6 2 5 3 1 8 11 12 15 14 15 15 15 15 18
5 5 5 5 6 8 5 5 6 6 7 11 11 11 10 7 4 4 6 5 5 3 4 4 3 5 4 2 2 6 9 11 13 12 12 13 11 11
5 4 5 5 6 8 6 6 7 6 5 6 4 6 7 6 6 6 5 6 5 5 3 3 3 3 3 2 0 2 3 7 7 11 13 12 10 5
5 4 4 7 8 9 11 6 7 5 8 7 6 6 5 6 5 6 7 6 6 6 3 3 3 4 4 3 2 1 2 2 3 4 6 10 11 9
5 4 2 7 9 11 8 9 11 9 4 5 7 7 6 6 5 7 8 8 6 7 3 5 4 5 5 5 5 2 1 0 1 2 3 4 5 8
4 3 7 9 8 8 7 7 7 5 6 6 7 7 5 5 3 3 7 7 6 6 5 5 7 6 6 5 4 3 3 3 1 1 1 2 3 3
4 3 5 6 7 5 2 3 3 4 5 6 6 6 5 5 7 7 6 6 6 7 8 6 7 7 6 6 5 5 4 3 3 2 1 2 2 2
5 3 3 4 4 3 3 3 3 4 4 4 5 6 7 7 8 7 7 7 8 6 6 5 4 5 5 4 4 5 4 4 3 3 2 3 3 2
4 4 4 4 4 3 3 3 4 4 3 5 6 6 7 7 8 7 7 8 9 8 7 5 5 3 2 5 8 4 4 5 4 4 3 4 4 3
5 5 5 5 4 3 3 4 4 3 5 5 6 6 7 8 8 7 7 8 8 8 7 6 7 7 7 6 4 8 5 5 5 4 4 5 3 3
4 5 5 4 3 3 3 4 4 3 4 5 6 6 6 7 8 8 8 8 8 8 7 6 7 9 9 6 3 3 9 5 6 5 4 3 4 6
4 4 3 3 3 3 3 3 3 4 4 5 5 6 6 6 8 8 8 9 9 8 8 8 9 6 2 2 3 3 3 11 7 5 3 4 3 2
3 4 3 3 3 4 3 3 4 5 5 4 4 5 6 6 8 8 8 9 8 8 8 2 4 4 5 7 8 4 3 4 4 8 10 8 3 2
4 4 4 4 4 4 4 4 5 5 4 4 5 5 5 7 7 8 9 8 8 8 7 6 5 5 5 6 7 5 5 4 3 6 7 14 16 15
Wind_Direction
131 134 137 128 128 132 133 152 319 339 305 123 341 5 346 344 9 348 0 357 8 6 8 19 19 19 16 16 18 22 22 18 17 16 18 19 21 25
140 149 146 139 133 129 137 140 142 331 283 351 350 343 344 346 2 358 7 359 18 7 3 24 21 19 19 20 22 23 22 22 19 20 19 19 22 22
155 161 144 149 148 141 149 150 144 274 292 293 326 343 341 352 358 4 6 11 16 1 12 16 21 21 22 23 24 25 23 23 22 21 20 21 22 23
167 163 147 154 161 164 156 150 142 142 300 313 325 343 346 354 358 5 357 6 12 2 10 13 7 18 25 26 26 25 22 23 23 22 21 22 22 22
170 162 161 174 174 163 166 156 148 156 299 295 311 327 339 6 354 2 356 354 7 2 9 14 7 3 24 25 25 22 20 23 24 23 23 25 25 26
159 161 173 188 180 173 172 171 166 224 330 315 310 326 333 358 4 356 344 338 329 354 1 4 357 5 18 27 27 23 20 20 23 26 26 27 27 27
161 169 188 189 178 185 188 178 185 253 300 312 310 324 337 347 348 341 322 324 302 315 313 2 345 5 4 23 25 25 25 20 22 24 29 29 31 30
167 178 190 193 202 201 210 218 245 274 264 288 306 302 310 325 325 322 312 324 330 118 313 291 298 345 4 2 21 30 26 26 22 27 24 29 33 34
175 176 182 195 210 215 221 238 262 276 271 275 272 274 295 288 304 298 296 292 273 290 312 283 247 286 348 354 17 15 18 35 28 26 27 32 26 36
175 179 189 186 209 219 217 232 251 257 261 259 246 261 242 248 254 290 296 296 284 266 236 273 232 269 258 41 20 19 15 14 40 33 30 32 36 27
171 173 194 197 207 228 235 245 256 265 269 275 275 282 224 251 247 277 272 273 286 260 190 271 268 284 271 271 48 19 24 21 12 34 45 34 33 39
169 184 195 221 225 240 249 254 269 270 264 262 271 247 235 227 202 224 260 256 265 286 149 258 289 290 272 171 127 21 356 19 16 14 15 40 34 29
181 182 200 218 236 246 253 251 257 265 263 260 257 255 239 225 218 215 231 243 253 254 105 269 273 274 264 293 208 175 7 4 3 4 10 11 28 35
179 193 202 232 247 256 267 271 274 275 270 265 268 262 265 259 230 224 224 229 240 262 301 255 270 255 267 283 276 162 175 15 334 360 353 342 15 21
192 165 236 255 272 269 260 272 295 268 263 262 260 268 272 286 302 231 220 228 241 244 244 243 252 269 253 252 274 243 219 194 206 288 331 344 352 352
191 212 230 254 259 265 278 276 277 268 268 266 275 281 279 258 256 243 236 222 238 247 215 232 249 248 247 241 256 251 220 233 181 217 257 281 296 324
158 190 217 222 230 242 265 282 293 283 269 268 273 277 282 275 264 253 237 233 234 246 226 206 214 249 262 250 233 232 214 211 201 202 230 250 238 264
171 208 215 217 232 247 261 281 289 284 296 300 285 280 276 276 274 265 237 236 241 244 239 212 200 209 231 227 227 236 220 223 190 196 216 249 244 203
205 205 218 216 225 234 247 254 267 294 309 279 283 284 285 287 288 279 262 244 244 247 239 200 205 214 227 241 145 222 222 201 187 208 218 219 256 213
201 207 212 210 218 233 244 249 261 277 279 285 286 287 283 284 287 281 273 264 253 252 235 214 218 212 223 243 244 157 209 217 205 214 205 219 260 276
196 200 199 206 218 230 243 254 265 271 284 282 277 279 285 287 283 282 280 272 264 255 239 229 227 212 182 112 224 210 206 213 219 221 185 217 226 221
187 195 194 205 221 228 237 252 257 251 254 261 278 292 292 295 288 288 286 284 274 259 258 238 132 159 189 211 234 212 195 196 216 229 228 232 199 234
187 199 197 204 214 220 227 238 253 268 269 275 281 286 294 290 284 283 282 276 273 266 251 205 185 194 221 222 232 225 199 190 215 229 241 242 243 243